Temperature
6 6 6 6 7 7 7 7 7 7 7 7 7 7 7 7 7 6 6 6 6 6 5 5 5 5 5 5 4 4 4 4 4 4 4 4 4 4 4 4 4 4 4
5 5 5 6 6 6 7 7 7 7 7 7 7 7 7 7 6 6 6 6 5 5 5 5 5 5 5 4 4 4 4 4 4 4 4 4 4 4 4 4 4 4 4
4 5 5 5 6 6 6 6 6 6 6 6 6 6 6 6 6 6 6 5 5 5 5 5 5 5 5 4 4 4 4 4 4 4 4 4 4 4 4 4 4 4 4
4 4 4 5 5 6 6 6 6 6 6 6 6 6 6 6 6 5 5 5 5 5 5 5 4 4 4 4 4 4 4 4 4 3 3 3 3 3 3 3 3 3 3
4 4 4 4 5 5 5 5 5 5 5 5 5 5 5 5 5 5 5 5 4 4 4 4 4 4 4 4 4 4 4 4 3 3 3 3 3 3 3 3 3 3 3
3 3 4 4 4 4 5 5 5 5 5 5 5 5 5 5 5 5 4 4 4 4 4 4 4 4 4 4 4 4 4 3 3 3 3 3 3 3 3 3 3 3 2
3 3 3 3 4 4 4 4 4 4 4 4 4 4 4 4 4 4 4 4 4 4 4 4 4 4 4 4 4 4 3 3 3 3 3 3 3 3 3 3 2 2 2
3 3 3 3 3 3 4 4 4 4 4 4 4 4 4 4 4 4 4 4 3 3 3 3 3 3 4 4 3 3 3 3 3 3 3 3 3 2 2 2 2 2 2
2 2 3 3 3 3 3 3 3 3 3 3 3 3 3 4 4 3 3 3 3 3 3 3 3 3 3 3 3 3 3 3 3 2 2 2 2 2 2 2 2 1 1
2 2 2 2 2 2 3 3 3 3 3 3 3 3 3 3 3 3 3 3 3 3 3 3 3 3 3 3 3 3 2 2 2 2 2 2 2 2 2 1 1 1 1
1 1 2 2 2 2 2 2 2 2 2 2 2 2 2 2 3 2 2 2 2 2 2 2 2 2 2 2 2 2 2 2 2 2 2 2 1 2 1 1 1 1 0
1 1 1 1 1 2 2 2 2 2 2 2 2 2 2 2 2 2 2 2 2 2 2 2 2 2 2 2 2 2 2 2 1 1 1 1 1 1 1 1 1 1 0
0 1 1 1 1 1 1 1 1 1 1 1 1 1 2 2 2 2 2 2 2 1 1 2 2 2 2 2 2 1 1 1 1 1 1 1 1 1 1 1 1 1 1
-0 0 0 1 1 1 1 1 1 1 1 1 1 1 1 1 1 1 1 1 1 1 1 1 1 1 1 1 1 1 1 1 0 0 0 0 0 0 1 0 0 0 0
-1 -0 -0 -0 0 0 0 0 0 0 0 0 1 1 1 1 1 1 1 1 1 1 1 1 1 1 1 1 1 1 1 0 0 0 0 0 0 0 0 0 -0 -0 -0
-1 -1 -1 -1 -1 -0 -0 -0 -0 -0 -0 0 0 0 0 0 1 1 1 1 1 1 1 0 0 0 0 0 1 0 0 0 0 -0 -0 -0 -0 -0 -0 -0 -1 -1 -1
-2 -2 -1 -1 -1 -1 -1 -1 -1 -1 -1 -0 -0 -0 -0 0 0 0 1 1 0 0 0 -0 -0 -0 0 0 0 0 -0 -0 -0 -0 -1 -1 -1 -1 -1 -1 -1 -1 -1
-2 -2 -2 -2 -2 -2 -1 -1 -1 -1 -1 -1 -1 -1 -1 -0 -0 -0 0 0 -0 -0 -0 -0 -0 -0 -0 -0 -0 -0 -0 -0 -0 -1 -1 -1 -1 -1 -1 -1 -1 -2 -2
-2 -2 -2 -2 -2 -2 -2 -2 -2 -2 -2 -2 -1 -1 -1 -1 -1 -1 -1 -1 -1 -1 -0 -0 -1 -1 -1 -1 -1 -1 -1 -1 -1 -1 -1 -1 -1 -2 -2 -2 -2 -2 -2
-3 -3 -3 -3 -3 -3 -2 -2 -2 -2 -2 -2 -2 -2 -2 -1 -1 -1 -1 -1 -1 -1 -1 -1 -1 -1 -1 -1 -1 -1 -1 -1 -1 -1 -1 -2 -2 -2 -2 -2 -2 -3 -3
-3 -3 -3 -3 -3 -3 -3 -3 -3 -3 -3 -3 -2 -2 -2 -2 -2 -1 -1 -2 -2 -1 -1 -1 -1 -1 -1 -1 -1 -1 -1 -1 -1 -2 -2 -2 -2 -2 -2 -2 -3 -3 -3
-4 -4 -3 -3 -3 -3 -3 -3 -3 -3 -3 -3 -3 -3 -2 -2 -2 -2 -2 -2 -2 -2 -1 -1 -1 -1 -1 -1 -1 -2 -2 -2 -2 -2 -2 -2 -2 -2 -3 -3 -3 -3 -3
-4 -4 -4 -4 -4 -4 -4 -4 -4 -4 -3 -3 -3 -3 -3 -3 -2 -2 -2 -2 -2 -2 -2 -2 -2 -2 -2 -2 -2 -2 -2 -2 -2 -2 -2 -2 -3 -3 -3 -3 -3 -3 -3
-5 -5 -5 -4 -4 -4 -4 -4 -4 -4 -4 -4 -4 -3 -3 -3 -3 -3 -3 -3 -3 -2 -2 -2 -2 -2 -2 -2 -2 -2 -2 -2 -2 -2 -2 -3 -3 -3 -3 -3 -3 -3 -4
-5 -5 -5 -5 -5 -5 -4 -4 -4 -4 -4 -4 -4 -4 -4 -3 -3 -3 -3 -3 -3 -3 -3 -3 -2 -2 -2 -2 -2 -2 -2 -2 -2 -2 -3 -3 -3 -3 -3 -3 -3 -4 -4
-6 -5 -5 -5 -5 -5 -5 -5 -5 -4 -4 -4 -4 -4 -4 -4 -4 -3 -3 -3 -3 -3 -3 -3 -3 -3 -3 -3 -3 -3 -3 -3 -3 -3 -3 -3 -3 -3 -3 -3 -4 -4 -4
Wind_Speed
1 1 1 1 2 2 2 2 2 2 2 2 2 3 3 3 3 3 3 3 3 3 3 4 4 4 3 3 3 4 4 4 5 5 5 6 7 7 7 7 7 7 7
1 1 1 1 1 2 2 2 2 2 2 2 2 2 3 3 3 3 3 3 4 4 3 4 4 3 4 4 3 4 4 4 4 5 5 5 6 6 7 7 7 6 6
1 1 1 1 1 1 1 1 1 1 2 2 2 2 3 3 3 4 4 4 4 4 4 4 4 4 4 4 4 4 3 3 3 4 5 5 5 5 6 6 7 6 7
1 1 1 1 1 1 1 1 1 1 2 2 2 2 3 3 3 3 4 4 3 3 4 4 4 4 4 4 4 4 3 3 3 3 3 4 4 5 5 5 6 6 6
1 1 2 2 1 1 1 1 1 1 1 1 2 2 2 2 3 3 3 3 3 3 3 3 3 4 4 4 3 3 3 2 2 2 3 4 4 5 5 5 5 5 6
1 2 2 1 1 1 0 1 1 1 1 1 2 2 2 2 2 3 2 3 3 3 3 3 3 3 3 4 3 3 2 2 2 2 3 3 5 5 5 5 5 5 4
2 2 2 1 1 1 1 1 1 1 1 2 2 2 2 2 2 3 3 3 3 3 3 3 2 2 3 2 2 2 2 4 4 3 3 4 4 4 5 5 5 5 5
2 2 2 1 1 1 1 1 1 1 1 1 2 2 2 2 2 2 2 3 2 2 3 3 3 2 2 1 1 1 2 3 3 3 2 3 4 4 4 4 4 5 4
2 2 2 2 1 1 1 2 1 1 1 2 2 2 2 2 2 2 1 1 1 2 2 2 2 2 1 1 0 0 1 2 4 4 4 4 5 5 4 3 3 4 4
2 3 3 2 2 2 2 2 1 2 2 1 1 2 2 2 1 1 1 1 2 1 1 1 1 1 1 1 1 1 0 1 2 3 4 4 4 4 5 4 3 3 3
3 3 2 2 2 2 1 1 1 1 1 1 1 1 1 2 1 1 1 1 2 2 1 1 1 1 1 1 1 0 0 0 0 1 2 3 3 3 4 4 4 3 3
3 2 2 2 1 1 1 1 1 1 0 0 1 1 1 1 1 1 1 1 1 2 1 1 0 1 1 2 1 2 3 2 1 1 2 2 3 3 4 4 4 4 3
2 2 2 2 1 1 1 0 0 0 0 0 1 1 2 2 1 1 0 1 0 1 1 1 1 2 2 2 2 3 2 1 1 1 1 2 2 3 3 3 4 4 3
2 2 1 1 1 1 1 1 0 1 1 1 1 1 1 1 1 1 0 0 0 0 0 2 3 3 2 2 2 1 1 1 1 0 1 2 2 2 3 3 3 4 4
2 1 1 1 1 0 1 1 1 1 1 1 1 1 1 2 2 1 0 0 1 1 1 1 1 1 1 1 1 1 1 1 1 1 1 1 2 2 2 3 3 3 3
2 1 1 1 1 0 0 1 3 3 3 3 2 2 2 2 1 0 0 1 2 3 2 1 1 1 1 0 0 1 1 1 1 1 1 1 1 2 2 2 3 3 4
2 2 1 1 1 1 1 1 1 2 3 3 3 2 2 2 2 1 1 2 3 4 2 1 1 1 1 1 0 0 1 1 1 0 1 1 1 2 2 2 3 3 4
2 2 1 1 1 1 1 1 1 1 1 2 2 3 3 2 2 2 2 2 2 1 1 1 1 1 1 1 1 1 0 0 0 0 1 1 1 1 2 2 2 3 4
2 1 1 1 1 1 1 1 1 0 1 1 1 2 3 2 2 2 2 1 1 0 0 0 1 1 1 1 1 1 1 1 1 1 1 1 1 1 2 2 2 3 3
2 2 1 1 1 1 1 1 1 1 0 1 1 2 2 1 1 1 1 1 0 0 0 1 1 1 1 1 1 1 1 1 1 1 1 1 1 1 2 2 2 2 3
2 1 1 1 1 1 1 1 1 1 1 1 1 1 1 0 0 1 1 1 0 1 1 1 1 1 1 1 1 1 1 1 1 1 1 1 1 1 2 2 2 2 2
2 2 2 1 1 1 1 1 1 1 1 1 1 1 1 1 0 1 1 1 1 1 1 1 1 1 1 1 1 2 2 1 1 1 2 1 1 2 2 2 2 2 2
2 2 2 2 1 2 1 1 1 1 1 1 1 1 1 1 1 1 1 1 1 1 1 1 1 1 1 1 1 2 2 2 2 2 2 2 2 2 2 2 2 2 2
2 2 2 2 2 2 2 1 1 1 1 1 1 1 1 1 1 1 1 1 1 1 1 1 1 1 1 1 1 2 2 2 2 2 2 2 2 2 2 2 2 2 2
2 2 2 2 2 1 1 1 1 1 1 1 1 1 1 1 1 1 1 1 1 1 1 1 1 1 2 2 1 1 2 1 1 1 2 2 2 3 2 2 2 2 2
2 2 2 2 2 2 2 1 1 1 1 1 1 1 1 1 1 1 1 1 1 1 1 1 2 2 2 2 2 2 2 1 1 2 2 2 2 2 2 2 2 2 2
Wind_Direction
290 258 242 241 235 218 211 209 210 212 217 222 224 231 225 223 229 231 234 235 242 255 262 264 273 280 280 281 279 277 278 282 285 300 312 320 325 329 332 338 339 341 346
315 287 270 246 221 213 208 208 211 212 217 222 225 233 238 231 226 229 234 233 239 249 258 262 270 278 278 277 274 274 274 278 283 294 307 318 322 326 330 332 338 342 343
324 300 294 279 251 250 231 227 230 228 229 231 230 234 244 243 234 234 234 234 241 247 254 260 266 269 272 278 275 274 278 280 280 284 303 316 319 326 329 332 335 337 339
334 313 298 295 290 300 301 248 241 242 242 245 243 243 246 248 244 244 232 233 243 251 256 259 264 264 268 273 274 278 282 283 288 291 305 313 317 323 325 328 330 333 333
330 318 307 304 302 313 331 331 275 256 254 251 250 246 245 248 249 254 237 241 243 249 256 260 265 278 289 288 286 284 284 287 295 301 307 316 324 325 320 317 319 324 327
327 323 317 302 301 306 314 326 334 281 256 246 245 245 247 257 281 270 256 247 242 245 254 262 266 266 283 295 302 317 310 275 270 281 295 299 309 315 314 315 318 324 322
326 328 330 301 287 292 286 283 294 300 273 255 258 255 259 272 280 271 253 250 246 246 247 251 263 276 278 277 299 338 344 336 316 285 275 292 303 309 310 313 317 319 314
333 337 332 319 293 286 273 273 281 286 287 278 270 272 272 272 275 271 253 242 251 259 256 255 257 269 284 291 309 343 350 351 335 325 311 317 325 321 312 307 308 318 318
325 323 315 305 287 270 269 270 280 283 290 295 284 274 273 274 267 267 266 237 237 263 272 270 262 262 310 357 101 34 7 7 28 36 25 19 10 3 359 351 342 338 333
311 308 302 290 275 263 263 266 279 282 287 296 289 284 276 275 277 262 260 228 227 247 270 276 289 305 341 355 222 201 245 338 5 21 25 20 15 15 13 4 342 334 333
311 307 303 294 280 275 271 266 266 276 288 297 302 305 293 295 281 249 267 240 227 227 236 254 275 345 14 19 345 263 8 23 20 29 23 12 8 9 6 2 355 337 327
313 310 308 305 300 287 277 284 265 244 245 312 325 332 329 318 310 271 285 291 261 206 206 223 199 76 68 63 63 57 72 74 69 52 31 10 3 359 353 352 356 354 340
314 312 322 333 330 317 298 277 259 242 234 281 292 314 331 328 326 357 1 345 347 205 185 139 101 100 98 94 69 72 84 78 75 52 15 349 345 343 351 351 356 2 351
304 309 320 337 344 342 347 333 283 254 259 277 291 298 311 317 325 329 313 227 146 140 134 106 97 97 96 76 83 84 52 52 66 55 348 349 352 353 354 348 343 345 344
290 291 301 309 308 344 11 0 317 315 304 279 279 284 277 282 301 323 301 205 203 172 129 103 95 98 98 68 59 51 39 40 37 26 23 4 354 351 350 349 342 343 348
274 272 279 280 283 291 359 23 24 15 23 13 351 322 308 319 344 354 79 83 105 118 115 133 146 153 167 154 88 37 8 356 359 6 359 350 340 338 342 345 344 344 343
266 262 264 261 246 257 274 276 328 8 31 34 21 8 4 21 52 75 116 119 124 126 119 140 176 205 217 227 230 235 268 294 308 351 341 332 327 329 335 339 341 338 337
275 266 260 249 242 241 256 264 272 306 341 352 6 22 20 23 43 62 103 112 108 111 101 137 200 233 242 239 245 248 257 289 317 322 317 312 314 315 322 330 332 331 330
279 260 250 245 241 242 253 256 262 268 309 330 341 0 7 11 59 71 96 105 133 160 186 208 235 238 243 245 249 241 237 239 266 277 281 293 294 297 310 316 318 323 327
268 277 276 244 231 227 221 221 231 239 271 304 328 342 344 2 28 27 41 41 63 264 268 257 252 256 247 235 233 223 222 236 243 251 271 280 287 286 292 299 308 312 318
254 246 257 245 228 226 220 221 225 228 240 269 293 324 349 335 345 335 330 320 304 281 275 283 290 277 257 242 224 222 226 234 242 252 264 269 278 284 285 288 296 303 313
243 236 232 231 227 225 225 227 227 228 236 256 295 316 319 334 317 300 299 308 312 305 301 282 271 277 268 247 222 220 225 228 235 245 258 265 269 276 283 287 300 309 315
239 233 231 230 225 212 219 226 226 225 232 251 269 283 274 284 284 293 305 310 314 317 324 302 274 282 319 310 262 226 225 226 231 234 243 253 262 268 274 281 287 295 308
235 231 230 228 229 221 217 222 225 222 226 239 245 248 254 264 276 291 301 306 307 308 317 312 292 282 304 325 300 260 249 250 240 228 237 239 248 259 267 274 277 284 289
226 224 224 228 233 233 227 226 223 225 230 233 239 249 252 256 265 271 282 292 295 290 297 311 315 312 300 307 313 302 285 256 224 222 224 234 243 248 257 264 271 284 293
225 224 226 230 237 238 233 230 227 230 237 238 238 242 247 248 251 258 262 268 281 284 285 295 307 318 313 298 294 305 310 272 222 222 224 232 244 253 263 257 269 275 288
Height
1482 1483 1483 1484 1485 1486 1487 1488 1488 1489 1489 1489 1490 1490 1490 1490 1490 1490 1490 1490 1489 1489 1488 1487 1487 1486 1484 1483 1482 1481 1480 1479 1476 1474 1472 1470 1468 1465 1463 1460 1457 1454 1451
1480 1481 1481 1482 1482 1483 1484 1485 1486 1486 1486 1487 1487 1487 1487 1487 1488 1488 1487 1487 1486 1486 1485 1485 1484 1483 1482 1481 1479 1478 1477 1476 1475 1472 1470 1468 1466 1464 1461 1459 1456 1453 1450
1479 1479 1479 1480 1480 1480 1481 1482 1483 1483 1483 1484 1484 1484 1484 1484 1485 1485 1485 1484 1484 1483 1482 1482 1481 1480 1479 1478 1477 1476 1475 1474 1473 1471 1468 1467 1464 1462 1460 1457 1455 1452 1449
1477 1477 1477 1478 1478 1478 1479 1479 1480 1480 1480 1481 1481 1481 1481 1481 1482 1482 1482 1481 1481 1480 1479 1479 1478 1477 1477 1476 1475 1474 1473 1471 1470 1469 1467 1465 1463 1461 1459 1456 1453 1450 1447
1475 1475 1475 1476 1476 1476 1476 1477 1477 1478 1478 1478 1478 1478 1478 1478 1479 1479 1479 1478 1478 1477 1477 1476 1475 1475 1475 1474 1473 1472 1471 1469 1468 1467 1465 1463 1462 1459 1457 1454 1452 1449 1446
1474 1474 1473 1474 1474 1474 1474 1475 1475 1475 1475 1475 1475 1475 1475 1475 1476 1476 1476 1475 1475 1474 1474 1473 1473 1473 1472 1472 1471 1470 1469 1468 1467 1465 1464 1462 1460 1459 1456 1454 1451 1447 1444
1472 1472 1471 1471 1471 1472 1472 1472 1472 1473 1473 1473 1473 1472 1472 1472 1473 1473 1473 1472 1472 1472 1471 1471 1471 1470 1470 1469 1469 1468 1467 1466 1466 1465 1463 1461 1459 1457 1455 1453 1450 1447 1444
1470 1470 1469 1469 1469 1470 1470 1470 1470 1470 1470 1470 1470 1470 1470 1470 1470 1470 1470 1470 1469 1469 1469 1469 1468 1468 1468 1467 1466 1466 1465 1464 1463 1463 1461 1460 1458 1456 1454 1452 1449 1446 1443
1468 1468 1467 1467 1467 1467 1468 1468 1468 1468 1468 1468 1468 1467 1467 1467 1467 1467 1467 1467 1467 1466 1466 1466 1466 1466 1466 1465 1464 1463 1463 1462 1461 1461 1459 1458 1457 1455 1453 1451 1448 1445 1442
1465 1465 1465 1465 1465 1465 1465 1466 1466 1466 1465 1465 1465 1465 1465 1464 1464 1464 1464 1464 1464 1464 1464 1463 1463 1463 1463 1463 1462 1462 1461 1460 1459 1459 1458 1456 1455 1454 1452 1450 1447 1445 1442
1463 1463 1463 1463 1463 1463 1463 1463 1463 1463 1463 1463 1463 1463 1462 1462 1462 1462 1462 1462 1462 1461 1461 1461 1461 1461 1461 1461 1461 1460 1460 1459 1458 1457 1456 1455 1454 1453 1451 1449 1447 1444 1442
1460 1460 1460 1460 1460 1461 1461 1461 1461 1461 1461 1461 1461 1460 1460 1460 1460 1459 1460 1460 1460 1459 1459 1459 1459 1459 1459 1459 1459 1459 1459 1458 1457 1456 1455 1454 1453 1451 1450 1448 1446 1444 1442
1458 1458 1458 1458 1458 1458 1458 1458 1459 1459 1459 1459 1459 1458 1458 1458 1457 1457 1457 1457 1457 1457 1457 1457 1458 1458 1458 1458 1458 1457 1457 1456 1456 1455 1454 1453 1452 1451 1449 1448 1446 1443 1441
1456 1456 1456 1456 1456 1456 1456 1456 1456 1456 1456 1456 1456 1456 1456 1456 1455 1455 1455 1455 1455 1455 1455 1455 1456 1456 1456 1456 1456 1456 1455 1455 1455 1454 1453 1452 1451 1450 1448 1446 1444 1442 1440
1454 1454 1454 1454 1453 1453 1453 1454 1454 1454 1454 1454 1454 1454 1453 1453 1453 1453 1453 1453 1453 1453 1453 1453 1454 1454 1454 1454 1454 1454 1454 1454 1453 1453 1452 1451 1450 1449 1447 1445 1443 1441 1439
1451 1451 1451 1451 1451 1451 1451 1451 1451 1451 1451 1452 1452 1452 1451 1452 1451 1451 1451 1452 1452 1452 1452 1451 1452 1452 1452 1452 1452 1452 1452 1452 1452 1451 1450 1449 1448 1447 1446 1444 1442 1440 1438
1449 1449 1449 1449 1449 1449 1449 1449 1449 1449 1449 1449 1449 1449 1449 1449 1449 1449 1449 1450 1450 1450 1450 1450 1450 1450 1451 1451 1451 1450 1450 1450 1450 1449 1449 1448 1447 1446 1444 1443 1441 1439 1437
1447 1447 1447 1447 1447 1447 1447 1447 1447 1446 1446 1446 1447 1447 1447 1447 1448 1448 1448 1448 1448 1448 1448 1448 1449 1449 1449 1449 1449 1449 1449 1448 1448 1448 1447 1446 1445 1444 1443 1442 1440 1438 1436
1444 1444 1444 1445 1444 1444 1444 1444 1444 1444 1444 1444 1445 1445 1445 1445 1446 1446 1446 1446 1445 1446 1446 1447 1447 1447 1448 1448 1448 1447 1447 1447 1446 1446 1445 1445 1444 1443 1442 1441 1439 1437 1435
1442 1442 1442 1442 1442 1442 1442 1442 1442 1442 1442 1442 1442 1443 1443 1443 1443 1443 1444 1444 1444 1444 1445 1445 1445 1446 1446 1446 1446 1445 1445 1445 1444 1444 1443 1443 1442 1441 1440 1439 1438 1436 1434
1439 1439 1439 1439 1439 1439 1440 1440 1440 1440 1440 1440 1440 1441 1441 1441 1441 1442 1442 1442 1442 1443 1443 1444 1444 1443 1443 1443 1443 1443 1443 1443 1442 1442 1441 1441 1440 1440 1439 1438 1437 1435 1434
1436 1436 1436 1436 1436 1437 1437 1437 1438 1438 1438 1438 1438 1439 1439 1439 1440 1440 1440 1441 1441 1441 1441 1442 1441 1441 1441 1441 1441 1441 1441 1440 1440 1440 1439 1439 1438 1438 1437 1436 1435 1434 1433
1434 1433 1433 1433 1434 1434 1434 1435 1435 1435 1435 1436 1436 1436 1437 1437 1437 1438 1439 1439 1439 1439 1439 1439 1439 1439 1439 1439 1439 1438 1438 1438 1438 1438 1437 1437 1437 1436 1435 1435 1434 1433 1432
1431 1431 1431 1431 1431 1431 1432 1432 1432 1432 1433 1433 1433 1434 1434 1435 1435 1436 1437 1437 1437 1437 1437 1437 1437 1437 1437 1437 1436 1436 1436 1436 1436 1436 1436 1435 1435 1434 1434 1433 1432 1431 1430
1428 1428 1428 1428 1429 1429 1429 1429 1429 1430 1430 1430 1431 1431 1432 1432 1433 1433 1434 1434 1435 1435 1435 1435 1435 1434 1434 1434 1434 1434 1434 1434 1434 1434 1434 1434 1433 1433 1432 1432 1431 1430 1429
1425 1425 1426 1426 1426 1426 1427 1427 1427 1427 1427 1427 1428 1428 1429 1430 1430 1431 1431 1432 1432 1432 1432 1432 1432 1432 1432 1432 1432 1432 1432 1432 1432 1432 1432 1431 1431 1431 1430 1430 1429 1428 1427